Wind_Speed
6 6 4 4 6 6 6 6 7 7 8 8 8 7 7 7 7 7 8 8 8 7 8 8 8 9 9 8 9 9 9 9 8 8 8 8 7 7 6 6 6 6 6
7 7 7 7 7 6 6 6 7 7 7 7 7 6 6 6 6 6 6 7 6 6 7 8 8 9 8 8 8 8 8 8 8 8 8 8 7 7 7 7 6 6 5
8 7 8 7 6 6 6 6 6 7 7 7 6 5 5 5 6 6 5 6 5 6 7 8 8 7 7 7 7 6 7 7 7 7 8 7 6 6 6 6 6 6 5
7 7 8 6 5 5 5 5 5 6 6 6 5 5 4 4 5 5 5 5 5 5 6 7 7 6 6 6 6 6 6 6 6 6 7 6 6 5 5 5 6 6 5
6 6 6 5 4 4 4 4 5 5 5 5 4 4 4 3 4 5 5 5 5 5 5 6 6 5 5 6 5 5 5 5 5 5 5 5 5 5 5 4 5 5 5
6 5 5 4 4 4 4 4 4 4 4 4 4 4 4 3 4 4 3 4 5 5 4 4 5 4 4 5 5 5 4 4 4 4 4 4 4 4 4 4 4 4 4
6 5 4 4 4 4 4 4 4 4 4 4 4 3 3 3 3 3 2 3 4 4 4 4 4 4 4 5 5 5 4 4 3 3 3 3 3 3 3 3 3 3 3
6 5 4 4 4 4 4 3 4 3 3 3 3 3 3 3 3 3 2 3 3 3 4 3 3 4 5 5 4 4 4 3 2 2 3 3 3 3 3 3 2 3 3
6 5 4 4 4 4 3 3 3 3 3 3 3 3 3 3 2 3 2 2 3 3 3 3 3 4 4 4 4 3 3 3 3 3 3 3 3 3 3 3 2 3 3
7 5 4 4 3 3 3 3 3 3 3 3 3 3 3 2 2 2 2 2 3 3 3 2 3 4 3 3 3 3 3 3 3 3 3 3 2 2 2 2 2 2 2
8 6 5 4 3 3 3 2 2 2 3 3 3 4 3 2 2 2 3 3 3 3 3 3 4 4 4 3 3 3 3 3 3 3 3 3 3 2 2 2 2 1 1
9 7 6 5 3 3 2 2 2 2 2 2 3 3 3 3 3 3 3 3 3 4 4 4 5 5 4 4 3 3 3 3 3 4 3 3 3 3 2 1 1 1 1
9 8 8 7 5 3 2 1 1 2 1 2 2 3 3 4 3 3 4 4 4 5 5 4 5 5 5 5 5 4 4 4 4 4 3 3 3 3 2 1 0 0 0
10 9 8 7 6 5 3 2 2 1 1 1 1 2 3 3 3 4 4 5 5 5 5 5 6 5 5 6 5 5 5 5 4 4 4 4 4 4 3 1 0 0 1
9 9 8 7 6 5 4 2 1 1 1 1 1 1 2 3 3 4 4 5 5 5 5 6 7 7 5 5 5 5 6 5 4 4 5 5 5 5 4 2 2 1 1
9 9 9 8 7 5 4 2 1 1 1 1 0 0 2 3 4 5 5 5 5 5 5 6 7 8 6 5 5 5 6 6 5 5 6 6 6 6 5 4 3 3 3
8 8 8 7 6 6 5 3 2 1 1 0 1 1 1 2 3 4 4 5 6 6 6 5 6 7 6 6 5 5 6 6 7 7 7 7 7 6 6 6 5 5 5
8 8 7 7 6 6 5 4 2 2 1 1 2 2 2 2 3 3 4 4 4 4 4 4 4 5 6 6 6 7 7 7 7 7 8 8 7 7 7 7 7 7 7
8 7 7 7 6 6 6 4 2 2 2 2 2 3 3 4 3 3 4 5 4 5 5 5 5 6 6 6 7 8 8 9 9 9 9 8 8 8 8 8 9 8 8
8 7 7 7 6 6 6 5 4 3 2 2 2 3 4 4 4 4 4 5 5 5 6 6 6 6 7 8 8 9 9 9 9 10 10 9 9 10 10 10 10 9 9
9 9 8 7 6 6 6 6 6 4 3 3 3 4 4 4 5 5 5 5 6 6 7 7 7 8 8 9 10 10 11 11 11 10 11 12 12 12 12 12 11 11 11
9 9 9 8 7 6 6 6 6 5 4 4 4 4 5 5 5 6 7 6 7 7 7 7 8 8 9 10 11 12 13 12 12 13 13 13 14 14 13 13 14 13 13
10 10 9 9 8 8 7 6 6 5 5 5 4 4 4 4 5 5 6 7 7 8 8 8 8 8 8 10 10 11 12 12 13 14 15 13 13 13 13 14 14 13 13
10 9 9 9 9 8 8 7 7 6 5 5 4 4 4 6 6 6 7 8 8 9 9 9 9 9 9 10 11 11 11 12 12 13 14 14 14 14 15 15 15 15 14
10 10 10 8 8 8 7 7 7 6 6 5 5 5 5 6 6 6 7 8 9 10 10 11 10 10 11 11 11 11 12 13 13 14 14 15 15 15 16 16 16 16 15
11 12 11 9 8 7 7 7 7 6 6 6 6 5 6 6 6 7 7 8 8 10 10 11 12 12 12 12 13 13 13 14 14 15 15 15 16 16 17 17 17 17 17
Wind_Direction
72 65 63 122 130 127 126 134 137 134 129 130 126 126 127 124 127 130 127 128 132 132 125 121 120 119 114 110 110 109 110 111 109 104 99 99 101 104 108 107 106 107 107
72 68 76 109 124 123 127 134 141 139 136 134 130 128 129 125 127 128 128 130 133 133 127 120 120 121 116 112 110 111 112 110 106 102 98 102 101 100 101 104 103 103 104
70 72 89 98 111 119 125 131 143 148 145 140 135 131 132 130 128 122 128 133 132 131 131 128 125 125 120 117 115 115 112 106 106 106 100 97 98 99 100 101 98 97 95
66 71 82 92 99 112 123 135 148 148 153 150 145 139 135 134 132 134 135 136 138 126 130 134 133 130 127 125 122 122 119 110 109 105 96 92 92 92 101 99 95 92 89
64 72 79 86 93 104 120 137 151 153 155 157 155 146 141 137 138 139 143 143 141 134 129 137 139 130 127 131 130 129 123 116 113 104 96 92 89 88 95 100 94 89 85
63 72 77 81 88 93 111 138 152 161 165 169 165 158 153 148 135 133 137 144 144 141 140 134 138 132 127 137 136 133 127 122 120 108 101 96 89 89 94 93 87 83 86
63 75 78 84 89 93 101 125 141 155 164 173 174 177 167 157 153 160 146 140 138 139 142 143 141 141 133 141 140 138 132 127 125 118 105 99 93 91 99 97 86 78 81
66 74 81 89 88 91 99 117 131 150 161 174 186 185 180 174 171 170 153 144 146 152 161 163 155 149 140 147 155 140 129 125 130 133 124 120 114 105 102 103 98 84 79
67 76 84 88 83 87 98 114 140 144 161 178 179 185 195 197 201 190 187 161 167 165 167 165 158 162 159 159 169 158 143 139 140 148 147 139 130 114 101 99 93 83 73
62 72 88 82 73 82 90 94 132 153 161 168 182 196 205 216 229 216 219 206 189 181 179 183 184 179 176 181 181 169 160 160 167 164 160 159 154 143 126 107 97 80 62
62 69 73 73 68 77 91 100 106 152 164 172 191 208 212 217 226 228 220 206 203 191 192 201 200 191 194 201 192 185 186 181 181 178 175 174 166 153 135 111 95 86 64
63 62 65 70 66 66 70 83 114 146 168 202 205 205 211 222 223 230 223 212 210 202 202 212 212 208 206 209 208 210 202 200 192 189 188 194 182 167 145 115 88 77 75
53 54 56 60 65 59 61 82 109 149 166 194 227 219 218 224 231 240 244 227 222 219 221 218 211 213 215 209 214 214 201 203 201 199 199 199 200 192 184 165 105 96 67
50 52 54 56 51 45 50 74 90 114 156 179 239 229 232 238 242 244 243 236 229 225 228 222 216 217 213 210 222 221 205 192 199 206 211 216 219 202 195 188 263 331 302
51 51 53 51 44 40 41 50 81 91 93 121 188 223 239 237 247 242 242 234 230 232 230 225 222 221 214 213 218 219 214 207 210 224 228 228 225 216 210 220 244 270 278
45 46 45 41 38 37 38 28 19 18 41 81 26 263 248 246 239 229 233 230 227 226 227 229 228 225 219 215 220 218 224 228 231 231 237 237 238 231 223 231 244 261 268
35 36 36 32 32 36 42 46 27 15 27 16 331 308 285 259 244 236 232 234 229 230 231 233 234 233 229 226 221 221 229 238 236 235 237 240 242 237 231 237 250 261 268
23 26 27 28 29 35 36 28 8 354 345 268 277 283 282 278 252 237 230 231 228 229 236 236 242 242 235 231 225 231 235 243 241 241 243 241 240 240 242 249 255 263 266
13 15 17 20 21 26 24 16 4 350 332 272 273 290 287 282 262 246 239 249 245 242 243 247 251 246 240 236 235 242 247 254 253 249 248 246 243 244 247 253 257 263 268
3 3 3 9 12 15 16 20 13 3 342 290 292 295 290 284 273 267 262 255 248 245 248 251 250 250 250 249 249 251 253 253 250 246 244 243 245 250 251 256 261 264 269
355 354 353 357 359 2 5 9 7 357 343 313 290 286 279 274 267 261 263 258 256 256 254 255 257 257 259 256 256 258 258 254 252 250 249 248 249 251 254 261 266 266 270
345 349 352 349 347 348 347 350 352 344 338 312 297 291 284 270 259 258 256 258 260 261 258 259 262 261 263 264 259 258 257 258 257 254 253 252 250 250 254 260 264 265 268
344 345 347 346 342 339 335 334 336 328 324 312 301 287 283 268 261 267 260 260 260 262 264 268 269 268 269 272 270 264 263 259 260 256 252 256 255 255 253 258 262 266 271
339 336 337 339 339 336 331 330 329 322 316 310 309 299 285 271 265 266 267 263 264 266 270 271 269 271 274 277 280 275 269 264 264 264 256 257 259 257 256 260 263 267 270
331 330 327 330 331 327 327 329 330 328 322 314 305 298 296 285 280 280 281 274 269 268 270 271 272 276 277 278 280 279 272 270 267 263 260 258 257 259 260 263 267 268 270
326 324 323 320 326 324 324 326 328 331 331 325 313 300 296 295 299 295 288 282 280 277 276 277 278 282 283 280 280 281 277 273 269 266 262 263 260 258 261 263 265 268 270
Height
5894 5892 5889 5888 5892 5894 5896 5897 5898 5898 5899 5900 5900 5900 5901 5901 5901 5901 5902 5902 5902 5903 5903 5903 5904 5904 5904 5904 5904 5904 5904 5904 5904 5904 5903 5903 5903 5902 5902 5902 5902 5902 5902
5895 5893 5890 5889 5893 5896 5897 5898 5899 5900 5900 5901 5901 5901 5902 5902 5902 5902 5902 5903 5903 5904 5904 5905 5905 5905 5905 5905 5905 5905 5905 5905 5905 5905 5904 5904 5904 5903 5903 5903 5903 5903 5902
5896 5896 5895 5895 5896 5897 5898 5899 5900 5901 5901 5902 5902 5903 5903 5903 5903 5903 5903 5904 5904 5905 5905 5906 5906 5906 5906 5906 5906 5906 5906 5906 5906 5905 5905 5905 5905 5904 5904 5904 5904 5903 5903
5898 5898 5898 5897 5898 5898 5899 5900 5901 5901 5902 5903 5903 5904 5904 5904 5904 5904 5904 5905 5905 5905 5906 5906 5907 5907 5907 5907 5907 5907 5907 5907 5906 5906 5906 5906 5906 5905 5905 5905 5904 5904 5904
5899 5899 5899 5899 5899 5900 5900 5901 5902 5902 5903 5903 5904 5905 5905 5905 5905 5905 5905 5905 5906 5906 5906 5907 5907 5908 5908 5908 5908 5907 5908 5908 5907 5907 5907 5907 5907 5906 5906 5905 5905 5905 5904
5900 5900 5900 5900 5900 5901 5901 5901 5902 5903 5903 5904 5904 5905 5905 5905 5905 5906 5906 5906 5906 5907 5907 5907 5907 5908 5908 5908 5908 5908 5908 5908 5908 5908 5908 5907 5907 5907 5906 5906 5906 5905 5905
5901 5901 5901 5901 5901 5901 5902 5902 5902 5903 5903 5904 5905 5905 5905 5905 5906 5906 5906 5907 5907 5907 5907 5908 5908 5908 5908 5908 5908 5908 5908 5909 5908 5908 5908 5908 5907 5907 5907 5906 5906 5906 5905
5901 5901 5902 5902 5902 5902 5902 5902 5903 5903 5904 5904 5905 5905 5906 5906 5906 5907 5907 5907 5907 5908 5908 5908 5908 5908 5909 5909 5909 5909 5909 5909 5909 5908 5908 5908 5907 5907 5907 5906 5906 5906 5905
5901 5902 5902 5902 5902 5903 5903 5903 5903 5903 5904 5904 5905 5906 5906 5906 5906 5907 5907 5907 5908 5908 5908 5908 5908 5908 5909 5909 5909 5909 5909 5909 5909 5908 5908 5908 5908 5908 5907 5907 5906 5906 5906
5902 5902 5903 5903 5903 5903 5903 5903 5903 5904 5904 5905 5905 5905 5906 5906 5906 5906 5907 5907 5907 5908 5908 5908 5908 5909 5909 5909 5909 5909 5909 5909 5909 5908 5908 5908 5908 5908 5907 5907 5907 5906 5906
5903 5903 5903 5903 5903 5904 5904 5904 5904 5904 5905 5905 5905 5906 5906 5906 5906 5906 5907 5907 5907 5908 5908 5908 5908 5908 5908 5908 5909 5909 5909 5908 5908 5908 5908 5908 5908 5908 5907 5907 5907 5906 5906
5904 5904 5904 5904 5904 5904 5904 5904 5904 5905 5905 5905 5905 5905 5905 5906 5906 5906 5906 5906 5907 5907 5907 5907 5907 5907 5907 5908 5908 5908 5908 5908 5908 5908 5908 5908 5908 5908 5907 5907 5906 5906 5906
5905 5905 5905 5904 5904 5904 5904 5904 5904 5904 5904 5904 5905 5905 5905 5905 5905 5905 5905 5905 5906 5906 5906 5906 5906 5906 5906 5907 5907 5907 5907 5908 5908 5908 5908 5908 5908 5908 5907 5907 5906 5906 5905
5906 5906 5905 5905 5904 5904 5904 5904 5904 5904 5904 5904 5904 5904 5904 5904 5904 5904 5904 5904 5905 5905 5905 5906 5905 5905 5905 5905 5906 5906 5906 5907 5907 5907 5907 5907 5907 5907 5907 5907 5906 5905 5905
5907 5907 5906 5906 5905 5904 5904 5904 5903 5903 5903 5903 5903 5903 5903 5903 5903 5903 5903 5903 5904 5904 5904 5904 5903 5904 5904 5904 5905 5905 5905 5905 5906 5906 5907 5907 5907 5906 5906 5906 5906 5905 5904
5908 5907 5907 5906 5905 5904 5904 5903 5903 5903 5903 5903 5903 5903 5902 5902 5902 5901 5902 5902 5902 5903 5903 5902 5902 5902 5903 5903 5904 5904 5904 5905 5905 5905 5905 5905 5905 5905 5905 5905 5904 5904 5903
5909 5908 5907 5906 5905 5904 5904 5903 5902 5902 5902 5902 5902 5902 5902 5901 5901 5901 5901 5901 5901 5901 5901 5901 5901 5901 5902 5902 5903 5903 5903 5903 5904 5904 5904 5904 5904 5904 5904 5904 5903 5903 5902
5909 5908 5907 5906 5905 5905 5904 5902 5901 5901 5901 5901 5901 5901 5901 5900 5900 5900 5900 5900 5900 5900 5900 5900 5900 5900 5901 5901 5901 5902 5902 5902 5902 5901 5902 5902 5902 5902 5902 5902 5901 5901 5901
5909 5908 5907 5906 5905 5904 5903 5902 5901 5900 5900 5900 5900 5900 5899 5899 5899 5899 5899 5899 5898 5899 5899 5899 5899 5899 5900 5900 5900 5900 5900 5900 5900 5899 5900 5900 5900 5900 5900 5900 5899 5899 5898
5909 5908 5907 5906 5905 5904 5903 5902 5900 5899 5899 5899 5898 5898 5898 5898 5897 5897 5897 5897 5897 5898 5898 5897 5898 5898 5898 5898 5898 5898 5898 5898 5898 5898 5898 5898 5898 5898 5898 5897 5897 5897 5896
5909 5908 5907 5905 5904 5903 5902 5901 5900 5899 5898 5898 5897 5897 5896 5896 5896 5896 5896 5896 5896 5896 5896 5896 5896 5896 5896 5896 5896 5896 5896 5895 5895 5895 5895 5895 5895 5895 5895 5895 5895 5894 5893
5909 5907 5906 5905 5904 5903 5902 5900 5899 5898 5897 5896 5895 5895 5895 5894 5894 5894 5894 5894 5894 5894 5894 5894 5894 5894 5894 5893 5893 5893 5893 5893 5893 5892 5892 5892 5892 5892 5892 5892 5892 5891 5890
5908 5907 5905 5904 5903 5902 5901 5900 5898 5897 5896 5894 5893 5893 5893 5893 5892 5892 5892 5892 5892 5892 5892 5892 5892 5892 5891 5891 5890 5890 5890 5890 5890 5889 5889 5889 5889 5889 5888 5888 5888 5888 5887
5907 5906 5904 5903 5902 5901 5899 5898 5897 5895 5894 5892 5892 5891 5891 5891 5891 5890 5890 5890 5890 5890 5890 5889 5889 5889 5888 5888 5887 5887 5887 5886 5886 5886 5886 5886 5886 5886 5885 5885 5884 5884 5883
5905 5904 5902 5901 5900 5899 5898 5897 5895 5894 5892 5891 5890 5890 5889 5889 5888 5888 5888 5887 5887 5887 5887 5886 5886 5886 5885 5885 5884 5883 5883 5882 5882 5882 5882 5882 5882 5882 5881 5881 5880 5880 5879
5903 5902 5900 5899 5898 5897 5896 5895 5894 5893 5891 5890 5888 5888 5888 5887 5886 5886 5885 5885 5884 5884 5884 5883 5883 5882 5882 5881 5880 5880 5879 5878 5878 5877 5877 5877 5877 5877 5877 5877 5876 5876 5875